When you browse on this site, cookies collect data to enhance your experience and personalize the content and advertising you see.
Visit our Privacy Policy to learn more. By continuing to use the site, you agree to this use of cookies and data.
  • In Lithuania
  • List of Countries
  • For 7 days
  • Water Temperature
  • Satellite Maps
  • Weather Map
  • Weather Widgets
  • user-avatar
    Login

    Hourly Weather Bristol

    Today, 19 June, Wednesday

    Time Temperature Precipitation Wind Pressure Humidity
    00:00 +12°C° 0 mm 0 mps 755 mmHg 94%
    01:00 +13°C° 0 mm 1 mps 755 mmHg 94%
    02:00 +13°C° 0 mm 1 mps 755 mmHg 94%
    03:00 +13°C° 0 mm 1 mps 754 mmHg 94%
    04:00 +14°C° 0 mm 1 mps 754 mmHg 93%
    05:00 +14°C° 0 mm 1 mps 754 mmHg 93%
    06:00 +14°C° 0 mm 1 mps 754 mmHg 93%
    07:00 +15°C° 0 mm 2 mps 754 mmHg 91%
    08:00 +16°C° 0 mm 2 mps 754 mmHg 88%
    09:00 +16°C° 0 mm 2 mps 755 mmHg 85%
    10:00 +17°C° 0 mm 3 mps 755 mmHg 83%
    11:00 +18°C° 0 mm 3 mps 755 mmHg 80%
    12:00 +18°C° 0 mm 3 mps 755 mmHg 77%
    13:00 +18°C° 0.2 mm 4 mps 755 mmHg 76%
    14:00 +17°C° 0.2 mm 5 mps 755 mmHg 74%
    15:00 +19°C° 0.2 mm 6 mps 755 mmHg 73%
    16:00 +17°C° 0 mm 5 mps 755 mmHg 74%
    17:00 +16°C° 0 mm 5 mps 755 mmHg 76%
    18:00 +16°C° 0 mm 5 mps 755 mmHg 77%
    19:00 +14°C° 0 mm 5 mps 755 mmHg 79%
    20:00 +13°C° 0 mm 4 mps 756 mmHg 81%
    21:00 +11°C° 0 mm 4 mps 756 mmHg 83%
    22:00 +11°C° 0 mm 3 mps 756 mmHg 86%
    23:00 +10°C° 0 mm 3 mps 756 mmHg 90%

    Tomorrow, 20 June, Thursday

    Time Temperature Precipitation Wind Pressure Humidity
    00:00 +10°C° 0 mm 3 mps 757 mmHg 93%
    01:00 +10°C° 0 mm 3 mps 757 mmHg 93%
    02:00 +10°C° 0 mm 3 mps 757 mmHg 94%
    03:00 +10°C° 0 mm 3 mps 757 mmHg 94%
    04:00 +10°C° 0 mm 3 mps 757 mmHg 93%
    05:00 +11°C° 0 mm 3 mps 757 mmHg 91%
    06:00 +12°C° 0 mm 3 mps 757 mmHg 90%
    07:00 +13°C° 0.1 mm 3 mps 757 mmHg 85%
    08:00 +14°C° 0.1 mm 4 mps 758 mmHg 81%
    09:00 +15°C° 0.1 mm 4 mps 758 mmHg 76%
    10:00 +15°C° 0.1 mm 5 mps 758 mmHg 74%
    11:00 +16°C° 0.1 mm 6 mps 758 mmHg 72%
    12:00 +16°C° 0.1 mm 6 mps 758 mmHg 71%
    13:00 +16°C° 0.1 mm 6 mps 758 mmHg 71%
    14:00 +16°C° 0.1 mm 6 mps 758 mmHg 71%
    15:00 +16°C° 0.1 mm 6 mps 759 mmHg 71%
    16:00 +15°C° 0.1 mm 6 mps 759 mmHg 73%
    17:00 +15°C° 0.1 mm 6 mps 759 mmHg 75%
    18:00 +14°C° 0.1 mm 5 mps 759 mmHg 77%
    19:00 +13°C° 0 mm 5 mps 759 mmHg 79%
    20:00 +12°C° 0 mm 4 mps 760 mmHg 82%
    21:00 +10°C° 0 mm 4 mps 760 mmHg 85%
    22:00 +10°C° 0 mm 3 mps 760 mmHg 86%
    23:00 +9°C° 0 mm 3 mps 760 mmHg 88%

    Day after tomorrow, 21 June, Friday

    Time Temperature Precipitation Wind Pressure Humidity
    00:00 +9°C° 0 mm 3 mps 761 mmHg 89%
    01:00 +8°C° 0 mm 3 mps 761 mmHg 90%
    02:00 +8°C° 0 mm 3 mps 761 mmHg 91%
    03:00 +8°C° 0 mm 3 mps 761 mmHg 92%
    04:00 +9°C° 0 mm 2 mps 761 mmHg 90%
    05:00 +10°C° 0 mm 2 mps 761 mmHg 88%
    06:00 +10°C° 0 mm 2 mps 762 mmHg 87%
    07:00 +12°C° 0 mm 3 mps 762 mmHg 80%
    08:00 +13°C° 0 mm 4 mps 762 mmHg 74%
    09:00 +14°C° 0 mm 4 mps 762 mmHg 67%
    10:00 +15°C° 0 mm 4 mps 763 mmHg 66%
    11:00 +15°C° 0 mm 4 mps 763 mmHg 64%
    12:00 +17°C° 0 mm 4 mps 763 mmHg 63%
    13:00 +17°C° 0 mm 4 mps 763 mmHg 63%
    14:00 +17°C° 0 mm 4 mps 763 mmHg 64%
    15:00 +17°C° 0 mm 4 mps 763 mmHg 64%
    16:00 +15°C° 0 mm 4 mps 763 mmHg 67%
    17:00 +15°C° 0 mm 4 mps 763 mmHg 70%
    18:00 +16°C° 0 mm 3 mps 763 mmHg 73%
    19:00 +13°C° 0 mm 3 mps 764 mmHg 77%
    20:00 +12°C° 0 mm 3 mps 764 mmHg 82%
    21:00 +10°C° 0 mm 2 mps 764 mmHg 86%
    22:00 +10°C° 0 mm 2 mps 764 mmHg 87%
    23:00 +10°C° 0 mm 1 mps 764 mmHg 87%

    22 June, Saturday

    Time Temperature Precipitation Wind Pressure Humidity
    00:00 +9°C° 0 mm 1 mps 764 mmHg 87%
    01:00 +9°C° 0 mm 1 mps 764 mmHg 87%
    02:00 +9°C° 0 mm 1 mps 764 mmHg 88%
    03:00 +7°C° 0 mm 0 mps 764 mmHg 88%
    04:00 +8°C° 0 mm 0 mps 764 mmHg 86%
    05:00 +9°C° 0 mm 0 mps 764 mmHg 85%
    06:00 +10°C° 0 mm 0 mps 764 mmHg 84%
    07:00 +12°C° 0 mm 0 mps 764 mmHg 79%
    08:00 +13°C° 0 mm 0 mps 764 mmHg 74%
    09:00 +15°C° 0 mm 0 mps 764 mmHg 69%
    10:00 +16°C° 0 mm 0 mps 764 mmHg 67%
    11:00 +17°C° 0 mm 0 mps 764 mmHg 65%
    12:00 +20°C° 0 mm 1 mps 764 mmHg 63%
    13:00 +20°C° 0 mm 1 mps 764 mmHg 62%
    14:00 +20°C° 0 mm 1 mps 764 mmHg 62%
    15:00 +20°C° 0 mm 1 mps 764 mmHg 61%
    16:00 +20°C° 0.1 mm 1 mps 764 mmHg 64%
    17:00 +20°C° 0.1 mm 1 mps 763 mmHg 66%
    18:00 +20°C° 0.1 mm 1 mps 763 mmHg 69%
    19:00 +18°C° 0 mm 1 mps 763 mmHg 74%
    20:00 +16°C° 0 mm 1 mps 764 mmHg 79%
    21:00 +14°C° 0 mm 1 mps 764 mmHg 84%
    22:00 +14°C° 0 mm 1 mps 764 mmHg 85%
    23:00 +13°C° 0 mm 1 mps 764 mmHg 86%

    23 June, Sunday

    Time Temperature Precipitation Wind Pressure Humidity
    00:00 +12°C° 0 mm 1 mps 764 mmHg 87%
    01:00 +12°C° 0 mm 1 mps 763 mmHg 87%
    02:00 +12°C° 0 mm 2 mps 763 mmHg 88%
    03:00 +12°C° 0 mm 2 mps 763 mmHg 88%
    04:00 +12°C° 0 mm 2 mps 763 mmHg 87%
    05:00 +13°C° 0 mm 2 mps 763 mmHg 87%
    06:00 +12°C° 0 mm 3 mps 763 mmHg 86%
    07:00 +14°C° 0 mm 3 mps 763 mmHg 82%
    08:00 +15°C° 0 mm 4 mps 763 mmHg 78%
    09:00 +16°C° 0 mm 5 mps 763 mmHg 74%
    10:00 +17°C° 0 mm 5 mps 763 mmHg 72%
    11:00 +19°C° 0 mm 5 mps 763 mmHg 71%
    12:00 +20°C° 0 mm 5 mps 763 mmHg 70%
    13:00 +20°C° 0.1 mm 5 mps 762 mmHg 71%
    14:00 +20°C° 0.1 mm 5 mps 762 mmHg 72%
    15:00 +20°C° 0.1 mm 5 mps 762 mmHg 73%
    16:00 +19°C° 0.3 mm 5 mps 761 mmHg 78%
    17:00 +17°C° 0.3 mm 5 mps 761 mmHg 83%
    18:00 +17°C° 0.3 mm 4 mps 761 mmHg 89%
    19:00 +16°C° 0.1 mm 5 mps 761 mmHg 88%
    20:00 +15°C° 0.1 mm 6 mps 761 mmHg 88%
    21:00 +15°C° 0.1 mm 7 mps 761 mmHg 88%
    22:00 +15°C° 0.2 mm 7 mps 760 mmHg 87%
    23:00 +13°C° 0.2 mm 8 mps 760 mmHg 86%

    24 June, Monday

    Time Temperature Precipitation Wind Pressure Humidity
    00:00 +13°C° 0.2 mm 8 mps 760 mmHg 85%
    01:00 +13°C° 1.2 mm 8 mps 759 mmHg 88%
    02:00 +15°C° 1.2 mm 8 mps 759 mmHg 90%
    03:00 +15°C° 1.2 mm 8 mps 759 mmHg 93%
    04:00 +15°C° 0.3 mm 7 mps 759 mmHg 93%
    05:00 +15°C° 0.3 mm 6 mps 759 mmHg 92%
    06:00 +16°C° 0.3 mm 6 mps 759 mmHg 92%
    07:00 +16°C° 0.1 mm 6 mps 759 mmHg 92%
    08:00 +16°C° 0.1 mm 5 mps 759 mmHg 92%
    09:00 +16°C° 0.1 mm 5 mps 759 mmHg 93%
    10:00 +17°C° 0 mm 5 mps 759 mmHg 91%
    11:00 +19°C° 0 mm 4 mps 759 mmHg 90%
    12:00 +19°C° 0 mm 4 mps 759 mmHg 88%
    13:00 +20°C° 0.1 mm 5 mps 759 mmHg 87%
    14:00 +20°C° 0.1 mm 5 mps 759 mmHg 87%
    15:00 +21°C° 0.1 mm 6 mps 759 mmHg 86%
    16:00 +21°C° 0 mm 5 mps 759 mmHg 87%
    17:00 +21°C° 0 mm 4 mps 759 mmHg 88%
    18:00 +22°C° 0 mm 3 mps 759 mmHg 89%
    19:00 +21°C° 0 mm 2 mps 759 mmHg 91%
    20:00 +20°C° 0 mm 2 mps 760 mmHg 93%
    21:00 +20°C° 0 mm 1 mps 760 mmHg 95%
    22:00 +20°C° 0 mm 1 mps 760 mmHg 96%
    23:00 +19°C° 0 mm 1 mps 760 mmHg 96%
    Show more